User: anonymous   Login
Location: Unspecified
(0.0000°N, 0.0000°E)
Time: 22:59:36
(UTC+00:00)
Language:

CANX 3A (UNIBRITE) - Orbit

View from above orbital plane
View from above orbital plane
View from above satellite
View from above satellite

Ground track
Ground track

The orbit data is extracted from the following two-line orbital elements,

1 39092U 13009G   18317.15208591 -.00000008  00000-0  12563-4 0  9997
2 39092  98.5045 160.3955 0008733 210.6904 149.3771 14.34964022299184
Epoch (UTC): 13 November 2018 03:39:00
Eccentricity: 0.0008733
inclination: 98.5045°
perigee height: 769 km
apogee height: 781 km
right ascension of ascending node: 160.3955°
argument of perigee: 210.6904°
revolutions per day: 14.34964022
mean anomaly at epoch: 149.3771°
orbit number at epoch: 29918

The dashed part of the orbit path shows where the satellite is in the earth's shadow,  

DLR